Flag for U.S.A. Weather past 2 weeks in San Diego, California, U.S.A.

Now
61 °F

Partly sunny.


Feels Like: 61 °F
Forecast: 61 / 66 °F
Wind: 8 mph from West

Location: San Diego - North Island

Current Time: Apr 25, 2015 at 8:12:00 AM

Latest Report: Apr 25, 2015 at 7:52 AM


Visibility: 10 mi

Pressure: 30.00 "Hg

Humidity: 65%

Dew point: 49 °F

Location of San DiegoLocation

Historic Weather in San Diego — Graph

°F

San Diego temperature yesterday

Maximum temperature yesterday: 64 °F (at 12:52 PM)
Minimum temperature yesterday: 59 °F (at 6:52 AM)
Average temperature yesterday: 61 °F

Past Weeks' High & Low Weather Summary

 TemperatureHumidityPressure
High77 °F (Apr 16, 12:52 PM)93% (Apr 13, 2:52 AM)30.08 "Hg (Apr 13, 2:52 AM)
Low54 °F (Apr 11, 6:52 AM)14% (Apr 16, 9:52 AM)29.86 "Hg (Apr 20, 5:52 PM)
Average63 °F69%29.96 "Hg
* Reported Apr 10 7:52 AM — Apr 25 7:00 AM, San Diego, Weather by CustomWeather, © 2015

Note: Actual official high and low records may vary slightly from our data, if they occured in-between our weather recording intervals... More about our weather records

Advertising

San Diego weather history for previous 24 hours

 ConditionsComfort  
Time TempWeatherWind HumidityBarometerVisibility
7:00 AM
Sat, Apr 25
60 °FPassing clouds.8 mph72%29.98 "Hg10 mi
5:52 AM60 °FOvercast.8 mph72%29.98 "Hg10 mi
5:03 AM60 °FOvercast.12 mph75%29.98 "Hg10 mi
3:52 AM61 °FOvercast.5 mph72%29.98 "Hg10 mi
2:52 AM61 °FOvercast.3 mph72%29.99 "Hg10 mi
1:52 AM61 °FMostly cloudy.5 mph72%29.99 "Hg10 mi
12:52 AM61 °FOvercast.5 mph70%30.00 "Hg10 mi
11:52 PM
Fri, Apr 24
61 °FOvercast.5 mph70%30.01 "Hg10 mi
11:01 PM61 °FOvercast.7 mph70%30.02 "Hg10 mi
9:52 PM61 °FMostly cloudy.3 mph72%30.01 "Hg10 mi
8:52 PM61 °FMostly cloudy.6 mph70%30.01 "Hg10 mi
7:52 PM61 °FMore clouds than sun.7 mph70%30.00 "Hg10 mi
6:52 PM61 °FPartly sunny.7 mph70%29.99 "Hg10 mi
5:52 PM63 °FPartly sunny.9 mph68%29.99 "Hg10 mi
4:52 PM63 °FBroken clouds.7 mph68%29.99 "Hg10 mi
3:52 PM63 °FBroken clouds.9 mph70%30.00 "Hg10 mi
2:52 PM64 °FBroken clouds.9 mph68%30.01 "Hg10 mi
1:52 PM64 °FBroken clouds.10 mph68%30.02 "Hg10 mi
12:52 PM64 °FBroken clouds.9 mph65%30.02 "Hg10 mi
11:52 AM63 °FCloudy.8 mph70%30.02 "Hg10 mi
10:52 AM61 °FCloudy.10 mph75%30.02 "Hg10 mi
9:52 AM61 °FCloudy.9 mph75%30.01 "Hg10 mi
8:52 AM61 °FLight rain. Broken clouds.13 mph78%30.00 "Hg10 mi
Weather by CustomWeather, © 2015

See weather overviewHow to use our weather pages